RH
97 96 98 96 95 97 83 31 67 83 62 11 4 5 6 4 4 4 5 5 5 5 8 6 5 12 15
95 97 94 98 95 99 97 77 49 95 74 18 5 5 6 5 4 4 5 5 5 5 6 5 5 6 8
98 98 98 97 97 97 95 77 54 85 86 22 5 5 6 6 4 4 5 5 5 5 5 5 5 4 5
98 97 97 97 97 98 94 93 84 71 90 30 6 5 5 5 5 5 5 6 5 5 5 5 5 4 5
99 96 97 97 96 96 96 97 94 73 64 63 10 6 5 4 5 6 5 6 6 5 5 5 5 4 5
95 98 93 98 96 96 97 98 92 91 65 64 32 11 7 8 4 6 6 6 6 5 5 5 5 5 5
94 94 97 97 97 97 97 100 99 100 94 60 64 49 28 26 9 4 6 6 6 6 6 5 5 5 5
91 92 90 97 97 97 97 100 97 98 98 77 59 73 67 67 36 8 5 6 6 6 6 5 5 5 5
62 89 84 96 97 98 96 96 96 97 88 85 67 73 60 72 68 47 21 6 6 7 7 6 5 6 6
31 81 87 82 94 94 95 96 93 100 85 80 78 81 56 52 75 71 66 48 21 7 7 6 6 6 6
6 42 70 60 76 90 95 93 93 94 89 97 78 78 89 37 39 54 75 81 72 58 7 7 6 6 6
11 10 34 50 52 76 92 88 96 93 91 92 90 84 80 72 33 34 53 62 59 85 26 6 6 6 6
24 8 8 26 32 60 83 92 84 91 92 72 84 100 84 86 86 33 36 55 48 56 56 10 6 6 7
11 27 10 7 28 84 70 85 85 65 92 88 72 95 80 72 89 75 53 51 45 23 60 41 12 6 7
4 24 27 6 9 34 52 64 79 58 67 86 84 90 96 78 81 85 83 67 44 14 41 53 51 7 8
7 18 34 24 6 18 59 51 71 51 47 72 82 79 92 73 75 69 76 79 42 15 16 37 53 7 7
18 26 36 42 12 8 37 35 28 35 39 51 59 66 81 76 86 65 78 70 75 65 15 15 22 7 6
Wind_Speed
68 65 59 56 56 56 56 51 50 50 47 44 45 43 40 36 34 31 27 24 23 19 19 19 18 20 22
71 69 60 56 57 58 58 52 52 51 48 46 46 45 41 38 35 34 29 25 24 21 19 18 19 21 23
59 69 63 57 56 58 59 57 56 52 52 50 48 47 44 40 37 37 32 27 25 23 21 19 19 21 22
63 71 68 62 58 58 56 54 57 59 57 53 50 49 45 43 42 38 36 30 27 26 23 20 19 21 22
64 60 74 72 67 58 58 55 52 60 60 57 54 50 47 44 42 39 38 34 31 28 26 23 20 21 22
78 61 72 77 70 67 59 62 60 60 65 58 57 51 46 43 42 42 41 38 34 30 28 27 22 21 22
82 70 75 81 67 62 57 57 57 55 58 61 58 53 49 46 43 45 43 39 37 32 28 31 25 24 22
75 80 70 80 66 58 61 57 50 54 62 66 61 56 52 49 47 47 43 40 40 34 30 32 29 27 23
80 80 74 78 68 70 67 68 61 59 58 60 58 63 56 55 52 51 44 40 40 37 33 32 33 30 27
82 83 80 81 82 70 70 70 66 59 63 63 59 62 60 57 56 54 47 40 39 39 37 33 35 33 31
86 87 86 84 80 82 72 72 64 60 54 56 55 57 62 58 56 55 50 45 43 43 39 36 38 37 33
82 89 88 87 86 86 83 76 65 54 49 49 57 58 58 61 57 56 53 48 47 47 43 41 39 39 36
83 88 94 94 93 89 85 80 74 63 56 56 57 61 62 60 61 59 61 55 49 51 47 41 40 41 40
92 88 93 100 95 91 88 88 79 73 67 63 61 60 64 64 57 63 69 60 51 52 48 44 39 40 41
93 98 92 99 101 98 91 87 83 81 75 71 67 60 63 66 61 62 66 59 52 53 50 43 38 40 42
98 103 99 96 100 100 100 96 90 86 80 74 75 65 62 65 62 62 61 59 53 49 48 46 42 42 43
101 105 107 100 100 104 104 99 94 91 86 81 80 75 64 66 61 60 51 53 55 52 47 46 44 45 46
Wind_Direction
211 211 214 218 223 223 213 219 222 223 225 226 228 231 233 233 236 243 246 250 259 264 272 283 292 299 311
207 216 211 217 222 223 222 215 223 222 224 225 228 230 231 232 234 240 245 247 255 261 266 278 289 297 308
211 213 212 211 220 223 224 217 219 221 224 223 226 229 230 230 232 238 242 243 251 257 263 272 287 298 306
205 208 210 211 215 222 224 227 229 217 222 223 224 228 229 229 231 234 240 241 246 252 259 267 279 293 302
205 214 212 211 213 216 223 225 230 224 222 221 224 227 228 229 232 233 239 242 244 249 256 263 273 286 297
224 220 215 212 212 216 219 225 227 227 222 223 225 226 228 232 232 233 237 241 243 248 254 262 268 279 291
227 221 215 210 208 216 214 220 224 228 229 226 226 227 229 230 234 235 236 239 244 246 250 262 267 273 285
231 238 233 207 206 208 219 218 225 220 226 226 226 227 229 231 234 237 236 237 243 244 247 255 265 271 280
221 228 233 222 220 206 211 216 222 224 227 228 226 227 226 228 232 238 236 236 240 244 245 250 260 267 274
213 221 228 235 236 227 212 217 218 220 223 227 225 227 224 226 230 236 239 240 242 245 245 244 256 262 268
216 215 221 226 234 231 225 209 217 219 222 229 227 227 225 225 227 233 236 237 239 244 244 241 249 257 263
219 216 217 219 228 235 232 225 216 221 221 233 224 226 228 224 226 232 235 235 238 242 244 242 244 254 261
219 218 216 218 219 225 228 229 230 226 223 226 224 220 224 227 222 228 233 232 233 237 239 242 243 249 257
218 218 218 218 217 220 227 232 227 230 227 225 228 221 223 229 223 226 233 234 233 237 237 239 243 250 256
219 216 217 217 215 215 219 221 223 228 227 232 230 225 223 227 226 226 233 232 232 236 239 239 243 247 253
217 213 214 215 215 214 214 218 219 224 225 225 231 228 225 226 227 226 227 227 230 234 239 242 243 244 249
216 213 212 213 214 212 215 216 214 216 218 222 230 233 227 228 227 232 229 227 235 236 240 241 241 243 246